Theta_e
314 313 312 311 310 310 311 311 311 313 316 316 314 314 314 314 313 313 312 313 313 312 312 313 312 311 310 309 310 312 311 310 312 312 312 312 311 312 311 311 312 311 311 312 313 314 314 313 314 314 313 312 311 311 312 312 313 316 317 316 315 316 318 321 322 323 322 317 313 312 311 311 312 311 309 310 310 310 316 319 321 325 322 321 331 331 324
314 313 312 310 310 310 311 312 312 313 315 316 315 314 314 313 313 313 313 313 313 314 314 313 313 312 310 310 310 311 310 311 312 312 312 312 312 313 313 311 312 311 310 312 312 312 314 314 313 314 315 313 311 311 312 313 314 316 317 317 315 313 315 319 325 327 324 321 319 317 315 312 312 311 310 310 310 311 314 316 324 328 320 319 329 331 326
313 312 311 310 310 310 311 312 312 313 315 315 315 315 314 314 314 312 311 312 312 313 313 313 314 314 312 311 310 311 311 311 312 312 312 311 311 313 313 311 312 312 312 312 311 312 315 314 313 315 315 313 312 311 311 313 314 314 315 316 314 315 315 319 327 327 320 320 322 320 316 314 312 311 311 311 310 311 315 318 324 327 320 320 329 329 322
313 312 311 310 310 310 312 313 313 314 315 314 316 316 314 315 317 315 314 312 311 311 310 310 313 316 317 315 311 311 312 310 310 311 312 311 311 312 312 311 312 314 314 314 313 313 314 315 316 316 315 314 312 311 311 312 313 314 313 312 315 319 315 315 323 324 318 318 319 317 316 314 312 312 312 312 311 312 316 321 323 320 318 323 330 323 315
313 312 311 310 310 310 311 313 313 314 314 314 315 314 314 316 317 316 316 314 311 312 310 310 312 313 315 315 311 311 313 311 310 311 311 311 311 311 311 313 315 315 315 315 315 314 315 316 316 314 314 315 313 310 310 310 311 313 311 310 318 323 317 314 318 316 313 314 314 313 314 312 311 313 313 313 313 312 314 317 318 318 317 325 334 326 314
313 312 311 310 310 310 311 313 313 313 314 314 314 314 314 316 316 314 315 314 313 314 311 310 312 313 314 315 312 312 314 312 312 311 310 311 312 312 312 313 315 315 317 317 316 316 317 316 315 314 313 315 315 313 311 310 310 311 310 310 316 321 316 312 314 314 312 314 313 312 313 312 312 314 314 314 314 313 312 314 317 319 317 320 328 323 315
313 312 311 310 311 310 311 313 313 313 314 313 313 314 314 314 315 313 313 313 312 312 311 309 311 314 318 319 315 312 313 313 311 311 312 312 312 313 313 313 314 317 322 322 317 316 317 314 313 314 313 313 315 315 313 311 309 310 311 310 312 317 317 314 314 314 313 313 313 313 313 312 313 314 314 314 314 313 311 312 313 315 316 317 319 316 317
314 312 311 310 311 311 310 312 314 313 314 313 313 315 314 314 314 312 312 313 312 311 310 311 313 316 317 317 314 312 312 312 310 311 312 312 312 312 314 314 314 317 323 322 317 315 317 316 313 313 314 313 314 314 313 312 311 312 314 312 311 314 316 316 317 316 313 313 314 313 313 314 313 314 314 314 314 314 313 312 313 314 315 316 314 315 322
314 313 312 310 311 311 310 312 313 314 314 314 313 314 314 314 314 312 314 316 313 312 310 311 315 318 315 315 314 314 314 312 310 310 309 310 311 312 314 315 314 315 319 317 313 313 315 315 313 312 313 313 313 312 311 310 311 314 314 313 315 316 315 317 320 318 314 313 313 314 314 313 312 313 314 313 313 314 315 317 320 320 319 319 317 321 328
314 313 312 310 310 311 310 311 313 314 315 314 314 314 314 313 313 312 314 315 313 311 312 312 315 315 313 313 314 313 312 311 309 310 310 309 310 311 311 311 312 315 315 313 311 311 311 312 311 311 311 311 310 310 310 309 311 314 314 312 315 319 318 316 317 319 317 314 314 315 313 311 313 314 312 312 314 315 318 323 326 323 322 323 323 325 326
315 314 313 311 310 311 310 311 312 313 315 314 314 314 313 313 313 311 313 317 312 309 313 317 317 314 312 312 313 312 312 312 311 312 313 311 310 310 310 309 312 315 313 311 311 311 311 311 311 311 312 312 311 310 310 311 311 312 315 315 315 318 320 317 315 317 318 317 317 316 311 310 314 313 309 311 315 318 323 327 325 322 323 324 324 323 322
315 314 313 312 311 311 311 311 311 312 314 314 314 314 312 313 313 311 314 318 315 311 315 316 314 313 312 311 313 313 313 314 312 312 314 313 312 312 311 311 314 314 312 311 312 311 311 312 313 313 312 310 311 310 310 311 311 310 312 315 317 319 319 318 316 316 316 318 319 315 312 312 313 311 310 314 317 319 324 325 321 319 322 322 322 322 321
316 315 314 313 312 311 311 311 310 311 312 313 314 314 313 313 313 311 312 316 316 314 315 314 310 311 312 311 312 312 312 313 313 313 313 313 313 313 313 313 313 312 312 312 312 312 313 315 316 316 314 313 314 313 313 313 313 311 311 312 316 320 319 316 316 316 315 317 316 313 312 313 313 315 316 318 319 320 322 323 321 318 319 320 320 321 321
316 315 314 314 313 312 311 311 311 310 311 312 312 314 314 313 313 312 312 316 316 312 312 313 313 312 312 312 312 312 312 312 313 313 313 313 313 313 313 313 313 313 313 312 311 312 314 318 320 318 317 319 318 315 315 314 312 312 313 311 312 317 319 317 315 315 315 315 315 314 314 314 317 321 319 317 318 318 319 322 321 317 316 317 318 319 319
316 315 315 315 314 313 312 311 312 311 311 311 311 312 314 313 313 312 311 314 316 312 311 314 314 312 312 312 312 313 315 315 314 313 313 313 313 314 314 314 313 313 313 312 313 315 316 320 321 319 319 319 315 313 315 314 312 311 310 310 310 312 316 316 315 315 316 315 315 316 316 315 317 319 316 314 314 314 314 319 321 317 314 316 317 317 318
317 316 315 315 314 314 313 312 312 312 311 311 311 311 312 312 313 314 312 312 315 314 312 313 313 312 312 312 312 313 315 316 315 314 315 315 313 314 314 314 313 314 312 312 313 316 319 319 317 316 318 316 313 312 313 314 315 312 308 310 312 313 314 316 315 316 316 314 314 316 316 316 318 317 314 313 313 313 314 317 319 316 313 315 316 316 316
317 316 316 315 315 315 314 314 313 313 312 312 312 311 311 311 312 313 313 313 313 313 313 313 314 313 312 312 313 312 312 314 313 313 316 316 313 313 314 314 314 313 312 314 316 317 319 317 313 314 315 312 311 312 311 313 318 316 313 315 318 317 317 316 314 315 315 314 315 315 314 316 318 317 314 313 313 314 315 317 318 315 312 314 316 315 315
316 317 316 316 315 315 315 314 314 314 313 313 313 313 312 312 312 312 312 313 313 313 313 313 314 313 312 312 313 312 312 313 312 312 315 313 311 313 314 313 314 313 313 317 320 320 318 314 313 316 315 309 309 312 312 314 318 316 313 314 315 314 315 314 314 315 315 315 315 315 314 317 317 315 314 313 313 313 314 316 316 313 312 313 313 312 313
314 316 317 316 316 316 315 315 315 315 314 314 314 314 314 313 313 312 312 313 313 313 313 314 314 314 313 312 313 313 313 313 313 315 316 315 312 313 314 313 313 313 313 316 318 317 316 314 312 313 314 311 310 312 311 312 315 315 312 312 312 312 312 312 313 314 314 314 315 314 315 316 315 313 312 312 314 315 314 313 313 312 312 312 311 311 311
311 314 316 317 316 316 316 315 316 316 315 315 315 315 315 315 315 315 315 314 314 313 313 314 314 314 314 313 313 314 313 313 313 314 316 316 314 314 316 316 315 313 313 316 316 314 315 316 313 311 314 314 311 311 312 312 314 314 315 316 315 313 312 313 313 312 313 313 313 313 315 315 312 312 313 313 316 316 313 311 312 313 312 310 310 311 311
310 312 314 316 316 316 316 315 315 316 316 316 316 316 315 315 316 316 316 316 315 315 314 314 314 313 314 314 314 314 314 313 313 313 313 314 314 315 318 318 315 314 314 316 316 313 314 316 314 311 313 313 311 310 313 315 315 311 310 314 314 312 314 316 313 312 314 314 312 312 315 314 311 312 313 313 314 312 310 310 311 311 310 310 310 310 310
311 310 312 314 315 316 316 315 315 315 315 315 315 315 315 315 315 316 316 316 316 316 315 315 314 314 314 314 314 315 315 314 314 313 313 314 313 314 316 315 313 314 313 313 315 314 314 315 314 313 313 312 312 311 309 312 316 313 308 310 313 313 313 314 314 314 314 315 314 312 312 312 311 311 311 310 310 310 309 310 310 309 309 309 309 309 309
311 311 311 312 314 315 316 316 315 315 315 314 314 314 314 314 314 315 315 316 316 316 316 315 314 315 315 314 314 315 314 314 315 315 315 315 314 313 314 313 313 314 313 312 315 315 314 313 312 313 314 313 314 314 310 309 314 315 312 311 311 310 308 309 313 313 311 311 312 310 309 311 310 310 310 310 310 309 309 309 309 309 308 308 307 307 307
311 311 311 311 313 314 315 316 316 316 315 314 314 314 314 314 314 314 315 315 316 317 316 314 314 315 316 315 314 315 314 315 315 316 316 316 315 314 314 314 314 314 313 314 314 312 313 312 310 311 313 312 312 316 315 312 312 312 313 314 311 309 308 310 313 312 311 312 313 309 308 310 310 309 310 310 310 309 308 308 308 307 306 307 306 306 306
311 311 311 311 312 313 314 315 316 316 316 316 315 315 314 314 313 313 314 315 316 316 316 316 314 313 315 315 315 316 315 315 316 316 316 316 315 315 316 314 314 314 313 314 313 312 313 314 312 313 315 312 311 314 315 314 312 310 312 315 314 311 309 311 313 313 311 312 312 309 308 310 309 309 310 309 309 309 308 308 308 307 306 307 306 305 306
311 311 311 311 311 312 313 314 315 316 316 316 316 316 315 314 313 312 313 315 316 315 315 316 316 314 314 314 315 315 314 314 315 314 315 315 315 315 316 315 315 314 313 313 313 312 312 312 312 315 316 313 311 313 313 312 311 309 311 313 311 310 310 311 311 311 310 311 310 308 308 309 309 308 309 308 308 309 308 308 308 307 307 307 306 306 305
311 311 311 311 311 311 312 312 314 314 315 315 315 315 314 313 312 312 313 314 316 317 316 315 316 315 314 313 314 314 314 314 315 314 314 314 314 314 316 316 315 315 313 313 313 312 312 312 313 314 314 312 310 311 311 311 310 312 314 311 307 310 312 309 309 312 312 311 310 309 310 311 310 308 308 308 308 309 308 308 308 307 307 307 306 306 305
311 311 311 312 312 312 311 311 312 312 313 313 313 312 312 312 311 311 312 314 316 317 315 315 315 315 314 314 314 315 315 315 315 315 314 314 314 315 315 316 316 315 314 314 313 312 312 314 314 312 311 312 312 311 310 310 311 314 314 310 308 310 312 309 310 314 313 310 309 308 309 310 309 308 308 308 308 308 308 308 308 308 307 307 306 306 306
311 311 311 312 312 312 312 312 312 312 312 312 312 312 312 312 312 314 315 317 317 316 315 315 315 315 315 315 315 315 316 316 315 316 316 315 315 315 315 316 316 316 314 314 314 313 313 313 313 312 312 313 314 313 313 313 313 314 313 310 310 311 311 310 311 311 310 310 310 309 308 308 309 309 309 308 308 308 308 308 308 308 307 307 307 306 306
311 310 311 311 312 313 313 313 313 313 313 313 313 313 312 312 315 317 318 317 317 315 315 314 314 314 315 315 315 316 316 316 316 316 316 316 316 316 316 316 315 315 314 314 313 313 314 313 313 313 313 313 313 314 313 313 314 314 312 311 311 311 311 311 311 310 311 311 311 309 309 309 309 309 309 309 308 309 308 308 308 308 307 307 307 306 306
311 311 311 311 312 312 313 313 313 313 313 313 313 312 312 312 315 317 317 316 316 315 315 315 315 315 315 315 315 316 316 317 316 316 316 316 317 317 316 315 314 314 314 314 314 313 314 314 313 313 313 312 313 314 314 314 315 316 313 311 312 312 312 312 312 312 312 311 310 310 310 309 309 309 309 309 309 309 308 308 308 307 307 307 307 306 306
311 311 311 312 312 312 312 312 312 312 312 313 313 313 313 312 313 314 314 315 315 315 315 316 316 316 316 316 316 316 316 317 317 317 316 316 316 316 316 315 314 314 313 313 314 314 314 314 313 314 313 313 314 315 315 314 315 315 313 312 312 312 312 312 312 312 312 311 310 309 309 309 309 309 309 309 309 309 308 308 308 308 308 308 307 306 306
311 311 311 312 312 312 312 312 312 312 313 315 317 317 316 316 315 313 313 314 316 316 316 316 317 317 316 316 316 316 316 317 317 317 317 317 316 315 315 314 314 313 312 313 314 315 315 314 314 314 315 314 313 314 315 315 314 314 313 313 313 312 312 312 312 312 312 311 310 310 310 310 310 309 309 309 309 308 309 308 308 308 308 307 307 306 305
311 311 312 312 312 312 312 312 312 313 317 319 320 319 318 318 318 315 314 315 316 317 317 316 317 317 316 316 317 317 316 316 316 316 317 317 317 316 315 315 314 313 313 313 313 314 315 315 314 314 315 314 313 313 315 315 314 313 313 313 312 312 312 312 312 312 311 311 310 310 310 310 309 309 309 309 308 308 308 308 307 307 307 306 306 306 305
311 312 312 312 312 313 312 312 314 318 320 321 320 318 318 319 319 317 315 316 316 317 317 317 317 317 316 317 318 318 316 316 317 316 316 317 317 316 315 314 314 315 314 314 313 314 315 315 314 315 315 314 314 315 315 314 314 314 313 313 311 310 311 311 311 311 311 310 310 310 309 310 310 309 309 308 308 308 308 307 307 307 306 306 306 305 304
312 312 312 313 312 312 313 315 319 321 321 320 319 318 318 318 318 317 316 316 316 317 317 317 317 317 317 317 318 317 316 316 317 316 317 317 317 316 316 315 314 315 315 314 313 314 315 315 315 315 315 315 315 315 315 314 314 314 314 313 312 311 311 311 310 310 310 310 309 309 310 310 310 309 308 308 308 308 308 307 307 306 306 306 305 304 304
312 313 313 313 312 313 317 320 321 321 320 319 318 318 318 318 317 317 316 316 316 316 316 317 317 317 317 318 317 316 317 317 317 317 317 317 316 315 315 315 315 315 316 315 315 315 315 315 314 315 315 316 316 315 314 314 314 314 313 314 313 312 311 311 310 309 309 309 309 310 310 309 309 308 308 308 308 308 307 307 306 306 306 305 304 304 304
312 313 313 313 313 317 321 322 321 320 320 319 318 318 318 318 317 316 316 316 316 316 316 316 316 316 316 316 316 316 316 317 317 317 317 316 315 316 315 315 316 316 316 316 316 315 314 314 313 313 314 314 314 313 312 312 312 313 313 313 313 312 311 310 309 309 309 310 310 309 309 309 308 308 308 308 308 307 307 306 306 305 305 304 304 305 305
313 313 313 313 315 318 321 321 320 319 319 318 317 318 318 317 317 317 316 316 316 316 316 316 316 316 316 316 316 316 316 316 316 316 316 315 315 316 316 315 315 314 315 316 315 314 314 315 313 313 313 313 311 311 311 312 312 312 313 312 312 312 311 310 309 310 310 310 309 308 308 308 308 308 308 307 307 307 306 306 306 305 304 304 304 305 305
313 313 313 315 317 318 319 319 319 319 318 318 317 317 317 318 318 318 317 317 317 316 316 316 316 316 316 316 316 316 316 316 316 317 316 316 315 314 315 315 314 314 316 316 314 313 315 315 314 314 315 313 310 310 311 312 312 312 312 311 311 311 311 310 310 310 310 309 308 308 308 308 307 307 307 307 307 307 306 306 305 305 304 304 305 305 305
313 313 314 315 315 316 316 317 318 318 318 317 318 318 318 318 318 317 317 319 319 317 317 317 317 316 316 316 316 316 317 317 317 316 316 315 314 314 316 315 314 314 316 315 313 313 315 315 314 314 314 312 310 310 311 311 311 311 311 311 311 311 311 311 310 310 309 308 308 308 308 307 306 306 307 307 307 306 306 305 305 304 304 304 305 306 305
313 313 313 313 314 316 316 316 317 317 317 318 319 318 317 317 318 318 318 319 319 318 317 317 317 317 317 317 317 317 317 317 316 316 316 315 314 314 315 315 313 314 315 313 311 313 314 313 314 314 312 310 310 311 310 310 311 311 311 312 312 311 311 310 309 309 309 308 308 308 307 306 306 307 307 307 307 306 306 305 305 304 304 305 306 305 304
313 312 313 315 317 318 319 318 317 317 317 318 320 320 318 319 319 319 318 318 318 318 318 318 317 317 318 318 317 317 317 316 316 315 315 315 314 314 314 315 314 314 314 312 311 312 313 314 314 313 311 310 310 311 310 310 311 311 311 311 311 311 310 310 309 309 308 308 308 307 306 306 306 307 307 307 306 306 306 305 305 304 304 304 305 305 303
313 313 315 318 318 319 320 319 318 318 320 320 320 320 321 321 321 320 319 319 318 318 318 318 317 318 318 318 317 317 317 316 315 314 314 314 313 314 315 316 315 313 312 312 312 312 312 313 313 311 309 309 309 310 310 310 311 311 311 311 310 310 310 309 309 308 308 308 307 306 305 306 307 307 306 306 306 306 306 305 305 304 304 304 304 304 303
313 315 318 320 320 319 319 318 318 319 322 321 320 321 322 322 322 321 319 318 317 318 318 318 317 317 318 318 318 317 317 316 315 315 313 312 313 314 315 315 314 312 312 312 312 312 311 310 309 309 309 308 308 308 310 311 311 310 310 309 309 309 309 309 309 308 308 308 307 306 306 306 307 307 306 306 306 306 306 305 304 304 303 304 304 304 303
315 316 318 321 321 318 316 317 319 320 319 319 319 321 322 321 319 319 318 317 317 318 318 318 318 318 318 318 317 317 316 315 314 314 313 313 315 315 313 312 313 313 313 313 314 313 312 310 308 307 307 307 306 306 308 310 310 310 310 309 308 308 309 309 309 308 308 307 306 306 306 307 307 307 306 306 306 306 305 305 304 304 303 303 303 303 302
315 315 317 321 322 318 315 317 320 319 318 317 317 318 318 318 318 318 318 318 318 319 319 319 319 318 318 317 317 316 315 314 315 314 313 314 314 314 313 312 312 312 312 313 313 311 309 308 308 306 306 305 305 305 306 307 309 310 310 309 308 308 308 309 309 308 307 307 306 306 307 307 307 307 306 306 306 306 305 305 304 303 302 302 302 302 301
315 316 319 322 321 317 316 318 318 317 317 318 317 316 316 317 317 318 318 318 319 319 318 318 318 318 317 316 316 314 313 313 314 313 313 313 313 313 314 315 312 309 309 310 310 308 308 308 307 305 304 304 303 303 304 306 308 310 311 310 309 308 308 308 308 308 307 306 306 306 306 306 307 307 306 306 306 306 305 305 304 303 302 302 302 301 301
315 317 319 321 319 316 316 318 319 317 318 318 316 316 317 317 318 318 319 319 319 318 317 317 319 319 316 314 313 313 313 312 313 314 314 313 313 312 312 312 312 310 309 308 308 308 307 307 306 305 304 302 301 301 302 304 306 308 310 311 311 310 309 308 308 308 307 306 306 306 306 306 306 306 306 305 306 306 305 305 303 302 302 302 302 301 301
316 316 317 318 317 317 316 318 319 319 318 317 317 318 318 318 318 319 319 319 319 318 316 316 317 316 313 312 314 315 313 312 314 315 314 312 311 310 309 309 310 310 308 307 307 307 306 305 305 304 304 302 301 300 302 304 306 308 309 310 311 311 310 308 308 308 307 306 305 305 306 306 306 306 306 305 305 305 305 304 303 302 302 302 301 301 301
316 316 316 316 316 316 316 317 319 319 318 317 318 319 319 319 319 319 319 319 319 317 315 314 314 315 315 315 316 314 312 311 312 313 313 311 310 309 308 307 308 308 307 306 305 304 303 303 303 303 302 302 302 302 302 304 306 308 309 309 310 310 309 308 308 307 306 306 305 305 306 307 307 306 306 305 305 305 305 304 303 302 302 302 301 301 300
316 317 317 317 316 316 316 316 317 317 318 319 319 320 320 320 320 320 319 319 318 316 314 313 314 316 317 315 312 310 310 311 310 309 309 309 309 308 308 307 306 305 304 303 302 302 301 301 301 301 302 302 302 302 303 304 306 307 308 309 309 308 307 307 307 307 306 306 305 306 307 307 306 306 305 305 304 305 305 304 302 302 302 301 301 300 300
Wind_Speed
26 26 26 26 26 26 24 20 15 10 7 6 8 12 16 16 11 9 8 4 3 9 8 4 4 5 3 4 8 9 5 5 7 9 11 8 6 8 6 4 5 5 3 3 3 3 4 3 3 2 2 2 3 11 16 13 6 3 2 2 3 2 3 3 2 3 4 4 3 4 4 4 5 5 5 3 3 2 1 3 2 2 3 2 2 4 3
26 26 25 25 26 25 23 19 14 11 8 6 7 10 13 16 17 18 11 1 1 7 4 2 4 4 4 5 7 9 8 7 8 7 7 6 4 3 4 5 5 4 3 4 3 2 3 3 3 2 1 2 7 14 18 14 7 5 3 2 3 2 1 3 3 3 4 5 4 4 4 4 3 3 4 5 5 5 2 1 2 2 1 1 3 4 3
25 25 24 25 25 24 22 18 13 10 10 7 4 6 7 9 11 18 18 11 9 9 5 4 5 3 5 5 4 6 6 7 10 9 7 8 7 3 2 4 5 4 4 5 5 5 4 2 2 2 2 3 6 14 19 16 10 8 10 7 3 2 1 3 4 3 1 1 1 2 3 3 2 2 5 6 7 7 3 2 4 2 0 0 3 2 3
24 24 23 24 24 24 21 17 12 9 10 9 6 6 5 5 4 8 14 18 18 15 8 6 5 2 3 4 4 4 2 4 10 10 7 8 10 7 3 2 4 5 6 6 6 7 6 4 2 2 3 3 4 9 15 18 16 13 16 15 5 3 3 3 5 5 4 5 4 3 2 3 2 3 6 6 6 5 3 3 2 1 1 2 2 2 3
24 23 23 23 24 23 20 17 12 9 9 8 8 9 7 5 3 2 5 10 13 14 12 9 5 2 3 2 2 4 2 3 6 8 5 5 7 7 6 5 4 4 4 5 4 5 5 6 4 2 2 2 3 6 11 16 19 16 17 16 6 4 4 4 5 4 2 4 2 4 3 1 3 4 5 5 6 5 4 2 3 3 3 3 5 1 3
23 22 22 22 23 23 21 17 12 9 9 7 7 11 10 6 3 3 3 2 3 5 8 9 8 5 4 3 1 4 4 3 3 4 4 5 5 4 4 6 5 3 4 4 2 3 4 5 3 1 2 3 4 6 6 10 16 15 14 13 6 4 2 2 3 3 2 1 3 4 2 1 2 3 4 4 5 4 1 3 5 5 4 4 6 1 3
22 22 21 21 21 21 20 18 14 11 11 8 8 12 12 9 6 5 6 4 2 2 2 6 11 8 5 4 3 3 4 4 2 1 3 4 5 4 3 3 4 3 3 5 4 2 2 2 2 1 1 3 3 3 3 6 12 11 7 7 5 3 1 2 3 2 3 4 3 3 3 3 3 4 5 5 5 5 5 5 5 5 6 7 7 4 2
20 21 20 20 20 20 19 17 15 14 11 7 9 13 11 9 7 5 7 8 8 7 5 5 8 6 4 4 3 2 3 3 3 2 4 1 3 4 5 2 1 3 4 5 4 4 6 5 2 3 2 2 1 0 1 0 6 8 2 3 5 3 1 2 3 3 3 4 4 3 3 2 3 5 6 6 5 5 4 4 3 3 5 5 5 4 1
19 20 20 19 19 19 19 16 14 14 11 8 12 16 13 11 9 7 7 5 7 7 5 4 4 3 4 2 2 3 3 2 1 3 7 4 1 1 6 6 1 3 5 6 3 4 7 7 5 6 5 2 3 2 1 3 1 4 2 2 4 3 2 2 4 4 3 2 3 5 4 2 3 5 6 5 3 2 3 3 2 1 2 2 1 2 2
17 19 19 19 18 18 18 16 14 13 10 10 13 14 12 12 10 8 7 3 5 5 3 4 4 2 2 1 1 2 2 3 2 3 7 9 5 3 6 7 4 4 4 4 2 2 5 5 3 4 3 2 4 3 4 5 3 1 1 1 2 2 3 1 3 2 3 3 3 4 3 4 2 2 2 3 3 3 4 2 3 3 1 2 2 2 2
16 17 18 17 17 17 17 16 15 12 10 10 11 10 10 9 7 6 6 3 4 4 3 3 3 1 1 2 3 2 4 8 6 3 1 6 7 5 5 6 6 2 1 4 5 2 4 4 6 6 5 5 8 11 12 11 7 4 3 2 1 2 4 2 2 2 3 6 5 3 3 2 3 3 2 3 4 4 2 1 3 4 2 3 3 0 1
13 15 17 16 16 15 15 15 15 13 12 11 10 9 9 9 6 4 5 4 2 4 4 2 1 1 2 4 5 4 6 8 7 5 4 3 7 9 8 7 5 1 2 5 6 2 2 3 5 7 9 10 13 15 15 11 9 7 6 4 2 3 4 2 2 2 2 3 4 4 2 4 5 5 4 3 2 1 2 4 3 5 4 3 2 2 2
12 13 14 15 15 14 14 14 13 13 12 10 9 8 8 8 7 6 7 6 0 2 3 1 1 3 5 6 7 5 5 7 8 9 7 5 6 9 9 7 4 2 2 2 4 2 2 2 3 3 5 6 7 9 9 6 5 8 8 5 4 4 3 2 2 2 0 2 2 1 3 6 5 5 5 3 4 4 3 3 2 4 4 3 3 4 5
10 11 12 13 14 14 13 12 11 12 11 9 8 8 7 7 6 5 6 5 1 1 2 2 1 3 4 5 5 4 4 6 6 7 7 5 5 7 7 5 4 4 2 1 3 4 3 2 3 3 4 5 4 3 3 3 3 5 6 4 3 5 4 2 1 1 2 1 1 2 3 6 5 3 2 2 2 1 1 1 0 3 5 5 4 4 8
8 9 10 11 12 13 12 12 11 10 10 10 9 8 6 7 7 6 6 6 4 1 1 1 0 0 2 3 4 3 3 3 3 3 3 3 3 4 4 4 4 3 1 0 2 4 3 2 3 2 2 2 1 1 2 2 2 3 6 4 4 4 2 3 3 1 2 3 1 2 2 3 4 3 3 2 2 3 1 0 1 2 6 9 6 4 9
6 7 8 8 10 11 11 11 11 10 10 10 9 8 6 6 6 6 5 5 4 1 1 2 1 0 2 3 3 3 2 1 1 1 2 2 1 2 1 3 4 3 1 2 3 3 3 3 3 2 1 2 2 1 2 2 2 3 5 6 6 5 2 3 4 1 2 3 1 1 2 4 4 5 5 5 5 3 1 1 1 1 7 10 8 7 10
5 6 6 7 7 8 9 10 10 10 10 9 9 8 8 7 6 4 2 2 2 2 4 3 1 1 2 2 1 2 2 2 2 2 1 2 2 1 0 1 3 2 2 2 3 4 4 2 2 2 2 3 2 1 1 1 0 3 4 5 6 5 4 3 3 2 3 3 2 2 3 4 4 5 5 6 3 2 2 1 2 2 7 10 9 9 11
4 4 5 6 6 6 7 8 8 9 9 9 9 8 8 8 7 5 3 1 0 2 4 5 4 4 4 3 2 3 3 2 3 2 1 2 2 1 0 1 1 2 2 2 2 3 3 2 2 3 2 2 1 1 2 1 1 2 0 2 2 3 2 1 2 2 4 4 3 2 3 3 4 3 4 5 2 2 2 2 2 3 7 8 8 9 10
5 4 4 5 5 5 5 6 6 7 7 7 8 8 7 7 7 6 5 3 1 2 5 8 9 8 7 6 5 5 4 3 2 2 1 2 1 2 1 2 0 1 2 3 3 2 2 1 1 3 2 2 1 2 2 2 2 2 2 2 1 1 1 1 2 2 2 2 2 3 4 4 5 2 1 1 2 2 3 2 4 4 4 5 8 9 10
5 5 5 5 5 5 5 5 5 5 6 6 7 7 7 7 6 6 7 6 5 5 5 8 11 12 10 10 8 6 6 6 4 4 3 2 2 3 2 2 1 1 2 2 1 1 2 2 2 1 2 3 2 2 1 2 3 2 3 2 2 3 2 1 2 3 2 1 2 3 4 4 6 3 2 4 4 2 3 4 4 2 4 7 9 10 12
6 5 6 6 5 4 5 5 5 5 5 6 6 7 8 8 7 7 7 8 8 7 4 4 8 11 12 13 12 10 9 9 7 5 4 4 3 3 1 1 4 3 1 2 2 1 2 2 2 1 2 1 1 1 1 1 4 3 2 2 2 3 3 2 2 3 3 3 4 4 3 7 9 5 2 4 6 8 8 7 4 4 7 10 12 14 15
6 5 6 6 6 5 5 5 4 4 4 5 7 8 9 10 9 8 9 10 9 7 6 7 10 11 14 16 16 14 13 12 10 8 7 6 6 6 6 4 5 5 4 4 3 1 1 2 2 2 2 1 1 2 2 2 2 4 1 2 3 5 5 4 3 3 3 4 6 4 4 8 10 9 9 11 11 11 10 9 9 8 10 12 14 17 18
7 6 5 6 7 7 6 5 5 5 5 6 6 7 9 11 11 10 11 11 10 10 9 9 9 8 10 14 17 17 16 15 13 12 11 9 7 9 11 10 7 5 6 7 5 2 4 4 2 2 2 2 3 2 1 2 2 2 2 2 4 5 5 5 2 2 3 7 10 10 9 14 17 18 18 15 11 10 10 11 11 10 11 12 13 15 17
8 7 6 6 6 7 7 7 6 6 6 6 7 8 10 11 11 12 11 10 10 10 8 5 4 4 6 8 12 15 15 14 14 13 12 12 11 9 10 12 11 8 9 11 10 5 5 3 2 2 1 3 4 3 2 3 3 2 3 2 4 4 7 5 2 1 1 4 7 9 11 16 17 15 14 14 12 12 12 11 10 11 11 10 11 12 14
8 7 6 6 6 7 7 8 8 8 8 8 9 9 10 12 13 13 11 9 8 6 4 5 3 3 6 7 9 12 13 15 16 16 16 17 17 14 13 13 11 10 11 12 13 9 5 2 2 2 2 5 7 3 2 3 4 3 4 3 3 3 8 6 2 3 4 4 8 10 11 14 15 15 17 19 18 17 13 11 11 12 11 10 11 12 13
8 7 7 6 6 7 7 8 9 9 9 10 10 10 10 12 13 13 11 9 7 4 3 4 3 3 8 11 11 13 14 15 16 18 19 21 20 19 19 17 12 11 11 11 14 14 8 3 3 2 2 5 8 5 2 3 3 3 4 6 4 7 7 5 3 3 3 7 12 14 12 14 17 19 18 18 17 15 13 11 12 12 11 11 12 13 15
8 7 7 7 7 7 7 7 8 9 9 10 11 11 12 11 12 13 11 7 5 2 1 4 9 13 14 10 6 6 8 9 12 15 19 21 21 20 21 21 19 15 12 12 13 12 7 3 3 3 3 5 6 4 3 2 3 2 4 5 8 8 4 3 3 1 3 6 11 10 5 7 12 12 10 10 10 12 13 14 13 12 12 13 14 16 18
8 7 7 7 7 7 7 8 8 8 9 10 10 11 13 12 11 12 11 8 6 5 5 10 18 18 12 4 1 2 3 4 7 11 15 20 21 21 21 23 23 21 18 15 11 8 6 4 4 5 4 5 5 3 1 1 2 2 5 8 14 13 10 8 7 5 8 13 17 13 9 10 11 9 8 8 9 12 15 15 13 13 13 14 15 18 21
7 7 7 7 6 7 7 8 8 8 9 10 11 12 13 12 9 8 8 7 6 7 9 13 14 12 8 4 2 5 5 5 4 5 9 15 20 22 22 23 24 24 22 18 12 7 6 7 8 7 6 7 6 3 1 2 2 5 8 14 21 24 23 21 19 15 15 21 22 15 13 14 11 9 9 9 10 14 16 14 13 14 14 15 17 19 22
7 7 7 6 6 7 7 7 8 8 8 9 11 11 9 8 5 4 4 4 4 5 7 7 6 9 11 7 6 8 7 4 4 5 6 9 16 20 21 22 24 25 24 20 14 9 5 6 8 8 9 10 6 2 1 3 2 6 10 15 22 26 28 29 28 23 21 25 22 16 15 14 11 10 13 13 14 16 16 14 14 14 15 17 18 20 23
7 6 6 6 6 7 7 8 8 8 8 9 10 8 5 4 3 3 3 3 3 4 5 5 8 12 12 8 8 11 9 7 4 5 6 6 10 16 19 20 21 22 21 18 14 10 7 6 6 5 9 13 10 3 2 3 2 5 7 10 17 22 23 25 27 26 27 28 22 14 13 14 12 13 15 13 12 13 14 15 15 15 17 19 20 22 25
7 6 6 6 6 7 7 8 8 8 8 9 9 7 6 7 7 6 4 4 3 3 4 5 6 6 6 8 12 12 9 8 6 1 3 5 7 9 13 16 17 18 16 11 7 6 7 10 9 6 8 13 11 3 1 4 6 10 12 12 14 16 17 19 21 22 25 28 23 15 14 17 16 14 13 11 10 12 14 15 16 17 20 22 23 25 27
7 6 6 6 7 7 7 8 8 8 8 6 3 2 3 6 8 8 7 6 5 3 4 4 2 1 4 10 12 9 8 7 4 2 2 4 6 5 7 11 13 14 15 12 8 5 6 9 10 8 8 11 9 3 2 6 13 20 23 22 19 17 15 17 19 19 21 25 24 20 18 18 15 11 11 11 11 11 14 16 17 19 21 23 25 27 29
6 6 6 6 7 7 7 8 7 6 3 2 2 3 4 5 5 6 6 7 5 4 4 4 2 1 5 8 7 5 8 9 5 5 5 2 5 5 5 7 7 8 11 12 10 8 6 7 8 5 4 7 8 4 4 11 19 23 22 21 21 18 16 17 20 21 22 22 21 20 18 16 13 11 12 12 11 11 13 15 17 19 22 24 25 28 30
6 6 6 7 6 6 7 6 3 0 2 3 3 5 6 4 3 3 5 7 5 2 3 3 2 2 4 4 2 4 9 10 6 6 5 2 4 5 5 5 3 4 7 8 7 6 5 6 6 4 2 5 5 3 6 12 18 18 16 17 19 19 17 16 18 20 21 18 17 15 14 13 13 12 11 10 11 12 14 15 16 19 22 24 26 28 31
6 6 6 6 6 6 5 2 1 2 2 4 5 7 6 3 1 1 5 9 7 3 2 2 1 1 1 2 3 7 11 10 7 6 5 3 2 3 4 4 2 3 5 5 3 3 4 5 5 3 2 3 3 7 13 17 18 17 18 20 20 19 18 17 16 18 19 16 15 14 12 12 12 11 10 11 12 13 14 15 16 18 21 24 27 30 31
6 6 6 6 6 4 1 3 2 0 3 5 7 7 5 2 1 2 6 11 12 9 6 4 3 4 4 3 3 6 7 6 5 5 4 2 1 2 3 2 1 3 3 3 2 3 4 6 4 2 2 4 8 14 19 23 24 24 26 26 21 18 16 15 13 14 15 15 15 14 13 12 11 10 10 12 12 12 13 15 16 17 20 24 28 29 30
6 5 5 5 4 2 2 3 1 1 3 5 7 5 2 1 1 3 6 8 8 9 7 5 5 7 6 4 5 7 6 3 3 3 2 1 2 1 2 2 2 2 1 2 2 3 2 3 3 1 3 6 11 16 22 26 26 25 25 22 17 14 11 11 10 13 15 14 14 13 13 11 9 9 10 11 10 10 11 13 15 17 21 24 26 27 28
5 4 4 4 2 1 2 2 1 2 4 5 5 3 2 2 1 2 4 5 4 5 6 6 7 9 8 6 7 10 8 4 2 2 1 1 1 1 1 1 1 1 1 2 2 2 1 1 1 2 2 4 9 20 28 26 21 18 16 14 13 11 11 10 12 14 14 10 7 7 7 6 6 7 8 8 8 9 11 12 15 18 22 24 24 24 26
4 4 3 2 2 2 2 3 3 3 4 4 2 2 2 2 2 2 3 2 2 4 6 6 7 9 9 9 8 7 6 5 4 3 2 2 2 1 1 0 0 1 1 2 1 2 1 1 1 1 2 4 13 26 32 26 18 14 12 11 10 9 9 11 13 12 10 6 3 4 4 4 5 6 6 7 8 10 11 13 16 20 23 22 21 22 24
3 3 3 2 3 4 5 5 5 4 4 2 2 1 1 1 2 3 2 1 2 3 5 5 4 4 7 9 8 6 6 7 6 4 2 2 2 2 1 1 0 0 2 2 1 1 2 1 1 2 2 9 20 28 31 26 18 12 9 7 5 6 9 11 12 11 8 5 4 5 3 3 4 5 5 6 7 9 11 14 18 21 22 21 20 21 24
3 3 3 4 4 4 4 3 3 3 2 2 1 1 1 1 2 2 3 3 2 2 4 5 4 4 6 7 8 7 6 5 5 3 2 1 2 2 1 1 0 1 2 2 1 0 1 1 1 2 5 16 24 27 28 27 20 10 5 2 4 8 10 10 10 9 7 6 5 4 3 2 4 5 5 5 7 9 11 14 18 21 20 19 18 20 23
3 3 3 3 2 1 0 1 2 1 1 0 0 1 1 1 1 1 2 3 3 2 3 4 5 6 7 7 6 6 5 5 5 4 2 1 1 1 1 1 1 1 1 0 1 1 1 1 2 2 9 19 24 25 26 26 21 12 6 4 7 10 10 10 9 8 7 7 5 3 2 3 4 4 4 5 6 8 11 15 19 20 19 18 18 19 22
3 3 2 1 1 1 1 0 2 2 0 1 1 1 1 2 2 1 1 2 2 3 4 5 5 6 6 5 4 4 4 4 3 3 2 1 0 1 1 2 2 1 0 1 0 0 1 2 1 6 14 21 25 26 26 24 20 13 8 7 8 9 10 10 9 8 8 7 5 2 3 5 5 4 4 4 6 8 12 15 18 20 19 18 17 19 21
2 2 1 1 0 1 1 1 1 2 2 2 2 2 2 2 2 3 2 3 4 6 9 11 10 8 8 7 4 3 3 2 1 2 1 1 1 1 2 2 1 1 0 1 1 1 1 1 3 11 18 23 26 26 24 22 18 11 7 9 10 10 11 11 10 9 8 6 4 3 4 6 5 4 3 3 5 7 11 16 18 20 19 17 16 19 21
2 1 0 1 0 1 2 1 0 1 2 3 3 3 3 4 5 6 7 8 9 10 13 14 12 10 8 6 2 3 3 1 1 1 1 1 0 2 2 0 1 1 1 1 1 2 1 1 6 14 21 24 26 25 23 21 17 11 8 11 12 12 12 12 12 10 8 5 4 5 6 6 4 3 3 3 4 7 11 15 18 19 17 16 17 19 21
2 1 1 1 0 1 1 2 3 3 2 2 1 4 6 8 11 12 11 11 12 12 13 13 10 8 6 4 2 2 3 2 1 1 0 1 1 1 1 1 1 1 1 1 2 2 2 5 13 21 24 25 26 25 22 20 17 13 11 14 15 14 14 15 15 13 9 7 6 6 6 5 3 2 2 2 4 7 10 15 18 18 16 16 16 17 17
2 2 1 1 1 2 2 2 3 3 2 1 6 10 11 12 13 10 8 9 11 11 10 9 7 4 2 2 2 2 1 1 0 1 1 1 0 1 2 2 1 1 1 1 2 2 4 10 18 24 26 26 26 25 23 21 19 16 14 15 17 18 19 19 17 15 12 9 7 7 6 5 2 0 1 2 4 6 11 15 17 16 15 14 14 15 16
3 3 3 2 2 4 4 4 5 2 2 6 12 13 12 12 11 7 4 6 8 9 9 7 4 2 2 1 1 0 1 1 0 1 1 2 2 1 2 3 3 2 1 1 2 6 12 18 22 25 27 28 27 26 23 21 19 17 16 16 15 18 20 19 16 15 13 9 7 6 6 3 1 1 0 2 4 6 10 14 15 14 14 14 14 15 17
5 4 4 4 3 4 4 4 3 2 3 8 12 12 9 8 7 5 4 6 9 9 7 4 2 1 1 1 2 1 1 1 1 1 2 2 2 1 3 4 4 3 3 5 9 15 21 24 25 26 27 29 29 26 24 21 18 17 15 14 13 16 18 16 12 13 12 9 7 6 5 2 2 2 1 2 4 6 10 12 13 13 13 13 14 16 17
4 5 5 6 7 6 4 3 3 4 7 10 11 10 7 6 6 6 6 7 8 6 4 2 0 1 2 2 1 1 2 1 2 2 1 1 0 1 3 4 4 6 10 16 21 24 26 27 27 27 28 29 28 25 22 20 17 15 13 12 12 14 15 13 10 11 10 9 6 5 3 2 3 2 2 2 4 6 9 10 11 12 13 14 15 16 16
4 4 4 6 9 11 10 9 8 9 10 10 10 8 5 4 5 5 5 6 6 4 2 0 2 3 2 1 0 1 2 2 2 2 2 2 1 1 3 7 10 14 20 26 29 29 29 29 28 28 28 28 26 23 20 18 15 13 12 11 9 7 9 11 12 11 10 8 6 4 4 4 3 2 3 4 4 6 8 9 9 11 13 15 16 16 16
Wind_Direction
1 2 4 4 5 5 3 3 6 19 47 64 67 68 61 60 50 23 48 97 48 63 65 2 22 59 50 58 49 47 50 26 18 18 25 34 39 38 37 35 48 45 37 55 60 71 61 26 43 79 28 36 357 347 2 13 15 37 50 320 335 31 74 56 14 315 303 286 307 5 31 65 58 33 21 16 6 5 161 169 160 59 26 358 58 101 184
2 3 5 5 7 7 6 6 9 23 47 62 74 82 73 64 52 40 42 353 2 80 96 58 68 57 39 58 48 47 51 33 32 33 20 25 46 53 27 26 51 46 29 60 71 73 80 48 30 62 79 9 358 7 22 30 29 39 32 321 329 4 59 76 59 11 350 342 341 346 355 32 48 3 360 6 1 5 23 72 60 60 51 131 116 123 210
3 4 6 7 9 10 11 12 14 27 43 47 70 95 81 68 55 41 45 67 93 90 102 107 98 73 47 53 25 36 47 40 49 54 40 40 55 77 49 40 59 45 34 59 44 41 86 95 9 40 33 341 351 15 29 30 28 32 21 5 15 72 70 99 106 121 170 237 263 271 310 352 29 7 356 0 8 14 27 58 46 52 273 104 139 163 271
4 6 9 8 9 13 15 18 19 27 37 41 61 89 77 64 57 27 40 61 72 72 75 85 87 93 83 60 17 27 41 29 46 53 50 45 52 62 55 48 66 41 41 62 36 25 53 69 69 57 7 325 330 12 31 30 23 23 19 14 30 109 58 66 106 123 162 180 210 252 317 352 341 356 4 0 357 7 56 81 53 161 3 330 215 173 341
5 7 11 10 10 14 18 23 27 27 27 34 62 79 75 66 55 341 21 46 51 54 54 54 64 97 108 100 1 16 16 349 28 42 52 53 55 58 36 24 58 60 64 84 44 15 34 43 57 59 350 296 312 6 35 32 21 20 19 14 32 110 46 35 75 76 148 180 232 312 357 1 311 338 355 346 339 358 56 113 212 156 76 304 245 167 23
6 9 13 11 12 14 18 25 32 36 36 42 71 75 70 77 79 51 64 53 17 39 37 40 57 59 55 86 66 19 29 31 32 37 43 42 45 57 35 21 43 89 104 113 96 28 30 24 20 28 359 336 340 7 30 30 24 22 19 19 48 112 64 35 81 47 336 315 334 349 17 322 295 315 313 312 328 339 323 236 223 158 132 241 250 289 29
7 10 13 13 14 15 18 26 34 42 44 44 74 81 76 86 93 66 72 87 61 45 23 47 61 48 23 51 53 31 41 31 356 4 41 25 14 48 85 22 14 54 85 102 109 110 102 52 341 237 51 16 11 17 5 19 26 26 21 19 36 96 74 33 95 84 357 353 349 5 24 351 311 292 282 280 291 289 265 253 235 194 202 238 265 300 27
7 11 14 15 16 17 19 26 34 43 44 44 78 88 84 88 94 79 84 78 43 34 39 56 62 39 20 45 31 31 53 18 338 19 63 68 332 35 104 144 10 54 72 86 108 158 153 138 179 184 125 20 327 110 221 280 16 18 28 4 11 57 65 353 69 74 350 345 1 356 352 315 280 279 280 278 290 297 278 264 252 227 244 261 272 276 258
8 11 15 15 16 20 22 26 35 43 47 61 80 86 89 97 100 96 96 67 13 19 35 49 63 33 19 37 1 3 6 326 299 28 39 63 100 87 136 154 114 48 59 73 111 185 169 158 172 171 150 154 189 195 190 179 21 10 35 346 359 63 67 351 59 60 306 300 353 321 302 297 279 277 281 277 279 285 272 285 348 337 279 277 249 237 241
8 11 16 15 16 20 23 29 37 41 45 62 77 83 89 95 95 91 98 68 6 16 21 30 68 65 339 5 42 21 349 354 74 72 29 36 56 131 155 140 99 53 55 51 24 183 163 151 139 152 162 168 171 154 108 116 122 135 127 37 5 96 100 65 76 69 282 286 311 298 327 6 321 259 274 277 274 282 284 331 26 6 303 179 176 208 251
8 12 17 16 16 19 23 30 39 43 48 60 72 82 85 88 90 84 92 79 6 15 32 41 71 106 315 47 68 74 57 42 54 109 41 20 47 89 122 109 94 84 36 5 354 27 124 104 85 93 96 108 122 114 99 86 76 100 138 102 34 93 101 126 121 108 264 289 319 342 14 4 262 249 265 262 270 288 293 53 36 355 9 125 147 171 327
9 12 17 18 18 19 21 27 35 42 50 56 62 72 76 77 75 66 86 103 3 15 55 64 63 105 87 85 83 66 59 55 57 90 115 52 59 73 70 70 77 49 347 3 354 355 134 88 71 69 69 88 103 94 86 76 60 68 91 111 132 104 93 133 138 114 237 302 9 25 323 248 254 288 299 280 291 16 101 100 63 8 17 69 67 7 350
8 12 17 18 19 20 21 25 32 39 46 51 52 57 63 69 75 79 92 104 52 357 76 74 62 101 98 90 89 74 65 78 77 78 80 61 57 66 60 57 57 15 1 15 4 34 105 39 26 27 26 46 69 68 64 58 53 60 61 70 120 133 124 140 135 124 168 6 63 149 255 270 287 314 323 339 14 31 63 96 71 19 13 10 359 338 334
5 13 18 18 20 22 21 23 29 35 41 45 45 46 50 64 83 94 96 101 116 324 82 68 18 82 91 90 97 85 54 66 73 74 71 54 53 64 58 55 48 18 344 287 1 44 93 45 21 9 354 7 20 23 24 19 46 63 45 32 110 131 134 128 130 171 137 97 202 233 323 321 317 330 348 27 34 1 35 109 282 29 22 359 353 341 333
1 9 17 18 20 22 22 22 27 31 36 40 42 43 49 62 76 86 98 113 117 39 71 144 211 63 107 110 105 86 42 35 52 64 65 60 75 72 47 38 37 16 340 176 51 52 77 75 57 27 350 15 21 286 326 349 357 54 54 54 91 104 132 151 149 178 121 107 284 323 5 307 270 246 255 343 350 282 257 187 256 38 19 1 360 354 342
356 4 14 18 19 22 23 21 25 32 33 34 37 39 41 50 63 76 94 109 104 86 187 173 182 168 122 107 91 94 107 127 95 31 359 8 58 96 56 17 12 9 68 101 79 72 69 82 113 142 218 190 177 263 323 359 324 347 34 51 63 57 46 111 119 113 111 127 186 217 188 236 242 225 251 326 334 278 261 27 291 2 8 2 6 4 359
342 358 6 13 17 21 23 19 22 33 36 34 37 38 37 41 51 64 69 66 80 136 187 202 244 201 145 112 89 138 152 150 129 110 329 305 302 300 14 346 5 42 98 86 56 66 77 88 117 128 237 221 156 175 268 69 349 305 350 22 37 37 27 69 113 170 181 168 202 220 219 248 242 222 269 320 335 142 82 4 260 328 6 10 15 8 4
314 336 354 6 9 13 20 19 17 26 32 33 34 35 33 35 38 40 21 352 73 175 208 221 231 224 210 203 184 165 168 156 124 126 219 282 267 241 324 336 2 36 66 86 72 76 93 115 142 145 219 264 118 153 226 150 165 232 213 63 41 19 16 92 133 184 208 203 224 258 254 242 221 226 297 341 32 121 164 229 262 354 7 14 13 3 358
296 299 322 348 357 358 6 9 8 16 24 24 23 24 24 24 28 28 16 2 324 244 238 230 230 234 229 216 196 181 192 204 168 127 63 337 230 179 75 19 78 29 38 79 94 94 109 157 193 138 151 273 283 158 186 189 202 200 131 113 119 67 63 129 138 153 196 196 204 273 281 235 195 205 324 45 121 183 217 280 357 356 352 357 349 341 341
300 287 286 307 333 344 348 350 354 2 9 12 12 10 9 10 14 14 8 359 333 308 277 240 236 238 234 228 219 207 212 221 210 178 163 196 200 156 54 350 233 93 42 71 122 124 134 186 228 137 155 219 207 138 189 263 259 197 156 172 203 168 149 203 200 167 138 142 196 253 275 203 167 133 95 153 176 232 314 346 355 317 316 330 324 319 326
303 293 281 284 297 317 329 337 344 352 2 11 8 2 359 1 2 358 354 349 333 318 302 256 252 246 239 238 233 226 226 228 227 224 228 234 208 158 115 226 194 176 126 125 151 194 169 167 188 175 169 188 171 147 166 284 304 285 179 164 200 188 166 175 220 194 143 155 206 232 225 184 173 168 179 214 248 285 307 312 297 290 310 315 311 310 314
297 300 291 282 280 289 305 317 329 342 356 2 0 358 353 351 353 350 345 340 326 306 292 289 281 264 247 240 233 230 235 239 242 247 250 245 223 220 237 220 184 195 199 159 136 176 188 164 162 167 165 160 187 200 169 154 295 292 235 160 207 217 192 163 189 207 175 196 224 220 172 173 188 216 257 272 273 276 284 284 280 290 303 304 306 308 308
291 297 300 292 281 278 283 293 307 320 333 343 348 348 343 341 342 341 339 337 328 318 307 295 282 270 256 243 234 236 241 244 247 244 240 240 230 232 245 238 218 218 212 195 194 174 156 168 163 147 181 189 156 144 182 204 229 244 213 209 230 219 180 141 150 243 269 263 249 234 230 237 242 255 269 271 264 265 276 276 273 286 298 301 305 309 309
287 289 297 300 290 279 274 277 287 298 310 323 330 334 335 334 332 333 336 336 333 331 324 304 279 265 260 238 227 233 237 237 241 241 238 238 228 221 240 243 234 229 221 217 218 189 143 150 140 125 212 202 156 144 206 222 229 205 182 241 289 223 181 168 167 214 259 273 247 224 233 248 254 263 263 252 251 267 274 266 269 287 300 304 311 316 315
285 285 291 297 295 288 279 273 277 285 295 305 312 319 326 325 323 327 331 332 334 338 324 310 300 247 245 238 227 237 245 243 243 243 241 242 237 233 243 247 238 237 239 232 219 196 162 127 126 142 218 198 181 185 210 214 222 188 176 230 286 179 176 183 188 183 195 259 263 247 249 258 264 267 263 259 265 270 261 256 274 292 301 306 313 319 318
283 282 287 289 292 295 290 281 282 283 288 297 302 308 315 318 318 317 318 322 327 325 288 286 283 267 276 271 255 254 259 257 253 248 244 245 245 244 246 244 238 243 245 230 213 202 186 140 134 166 217 197 192 196 193 192 183 156 202 229 179 140 162 183 177 195 252 288 274 263 268 276 271 267 268 269 268 258 247 257 279 291 299 307 312 318 320
283 282 284 284 287 293 293 293 293 290 292 297 299 302 308 310 308 304 303 308 315 311 236 265 291 307 310 298 263 251 261 259 254 249 243 241 240 240 239 235 234 236 228 210 204 202 191 160 172 198 197 187 191 197 204 194 154 151 242 215 155 144 171 168 143 199 258 252 244 234 234 267 265 264 272 270 256 247 252 268 280 288 299 309 313 317 318
283 280 282 283 285 287 289 295 297 297 301 302 302 306 308 305 297 289 286 289 281 256 261 290 302 315 328 338 82 34 343 298 266 249 241 239 237 236 234 230 229 228 219 204 195 192 187 187 195 192 184 185 190 194 186 133 148 241 249 197 180 195 208 185 176 210 233 243 245 232 216 241 262 277 283 270 255 256 263 272 281 290 301 310 314 316 318
284 279 279 283 285 284 287 293 295 298 304 305 307 311 308 301 292 276 274 286 273 260 287 305 310 321 336 343 14 13 357 333 297 258 240 234 233 234 234 230 228 226 218 207 197 195 201 207 205 201 196 187 178 171 174 159 192 251 239 208 208 221 227 221 219 223 238 255 261 249 235 248 268 286 287 274 263 265 270 276 285 294 303 308 310 313 316
286 279 277 281 285 284 286 289 291 299 305 307 314 317 308 298 288 255 251 273 257 264 301 312 305 318 329 340 6 7 357 333 279 251 235 229 230 234 235 231 228 225 217 208 204 206 212 220 222 226 221 203 182 154 201 187 215 256 239 223 226 232 235 236 236 237 245 258 263 257 252 258 268 277 277 275 273 274 276 278 284 294 303 305 306 310 313
287 279 279 284 286 287 289 289 291 297 301 306 314 314 293 282 284 256 245 249 239 265 295 283 284 306 319 335 351 351 356 2 325 251 230 228 231 232 233 231 227 221 214 210 209 209 212 215 216 223 219 211 208 213 190 186 252 268 239 232 237 236 236 242 245 246 250 254 254 254 255 254 257 269 276 279 281 279 276 278 286 296 302 303 304 306 309
284 279 283 286 288 292 295 295 298 302 304 307 308 294 271 276 280 268 254 248 248 276 296 288 294 308 314 329 340 342 347 356 358 306 226 238 234 231 233 231 224 218 218 220 219 216 222 222 218 222 222 213 210 220 181 193 239 250 240 238 244 243 245 251 252 251 252 249 243 240 246 249 254 266 276 279 279 277 277 286 296 300 300 301 303 304 308
283 283 284 287 293 297 298 299 305 311 313 318 325 312 300 295 281 263 250 242 242 252 269 284 304 285 290 316 331 337 341 346 357 11 316 258 232 233 237 230 224 222 224 229 231 232 234 224 217 231 240 217 206 224 259 226 241 251 252 250 249 250 255 258 255 253 253 248 241 237 244 252 259 268 274 276 278 283 289 295 299 299 299 301 303 306 311
285 286 287 294 298 297 299 305 311 318 334 35 67 21 347 325 294 267 243 231 232 238 248 266 286 259 289 313 323 328 339 343 337 335 336 266 222 234 227 213 219 223 218 220 224 231 239 223 209 217 226 199 197 219 262 249 253 260 261 256 250 249 256 262 259 255 252 247 242 240 245 254 262 266 271 279 287 294 296 298 299 302 304 305 306 310 315
287 289 293 299 298 298 305 310 305 336 66 57 23 353 344 329 300 270 232 223 223 221 231 245 250 261 301 323 320 314 332 341 339 330 328 267 233 244 216 189 197 220 213 212 217 225 229 216 205 199 173 174 191 225 248 257 266 270 269 260 251 244 245 252 260 262 258 245 233 231 236 245 254 262 272 285 293 296 297 301 304 306 306 308 311 316 318
289 294 297 298 301 305 311 315 155 130 58 23 356 346 341 323 293 229 229 228 226 220 246 267 247 207 254 296 288 306 324 336 341 330 312 274 241 230 201 185 207 228 213 203 205 224 220 205 202 205 171 164 212 243 251 266 276 273 268 267 260 245 238 243 256 270 267 245 222 222 233 241 249 262 276 285 291 296 299 303 308 310 311 313 317 320 321
293 300 299 299 304 305 252 145 147 336 356 357 348 341 334 321 122 152 217 231 236 243 256 273 260 235 235 248 277 296 312 326 331 326 304 272 261 215 189 187 239 240 221 206 207 228 224 209 207 220 207 222 253 269 280 290 290 279 272 270 259 242 242 251 256 258 251 231 216 222 234 241 250 265 278 285 291 298 301 307 315 319 320 320 321 322 323
297 301 298 297 302 285 162 153 161 295 329 342 338 326 295 217 161 189 210 223 237 244 241 241 252 250 236 229 262 276 279 297 323 319 283 279 315 254 189 210 262 256 263 266 235 227 225 207 202 241 257 253 272 297 312 315 307 295 284 271 250 241 258 269 248 224 216 212 213 223 232 240 255 273 283 288 295 303 307 314 325 329 327 326 326 326 326
298 299 295 292 288 229 186 182 208 292 318 327 322 292 214 182 175 198 201 207 233 241 226 228 247 243 221 217 262 277 272 261 286 300 236 234 290 232 193 244 276 256 302 291 230 208 237 237 219 257 272 272 309 330 336 333 320 306 289 266 252 261 270 254 223 211 212 213 212 218 227 243 268 285 291 295 304 314 319 324 332 333 331 330 331 330 328
289 292 289 275 256 245 246 248 259 292 312 313 286 242 210 202 204 189 172 192 233 224 212 226 255 253 237 234 254 276 272 248 244 258 249 226 228 229 224 224 176 188 257 256 196 165 189 238 236 236 249 304 330 340 344 342 327 308 295 281 270 264 243 216 203 203 210 214 207 216 238 261 280 291 298 300 307 317 326 335 339 336 335 336 335 332 331
289 288 273 264 276 282 279 276 276 281 287 276 244 222 188 215 231 213 185 199 260 231 218 230 258 262 246 239 239 252 268 264 256 261 263 233 218 209 217 232 230 216 243 255 249 181 197 238 234 208 269 331 339 345 350 349 336 314 300 294 266 218 197 192 193 197 201 207 218 231 247 273 289 299 306 306 309 319 332 340 339 337 339 341 338 335 335
282 279 278 291 301 294 274 261 255 245 231 219 237 311 300 257 262 241 211 213 242 242 224 228 244 275 287 276 262 258 263 261 254 253 254 220 211 216 231 279 345 221 239 265 315 50 252 294 239 226 326 344 347 350 353 352 342 319 285 247 192 186 185 187 194 202 211 218 222 227 244 286 306 311 307 304 313 327 337 340 338 339 342 342 337 336 339
277 292 303 305 298 277 183 181 174 170 161 135 95 358 317 278 261 246 231 237 252 254 237 243 271 302 311 299 276 261 253 246 244 242 225 191 190 210 230 272 241 214 226 350 70 88 262 239 209 276 337 348 351 352 354 353 345 325 286 227 192 190 196 203 209 214 215 215 214 219 265 304 311 311 307 309 323 335 340 340 339 340 343 343 338 337 341
284 295 301 286 200 148 114 164 169 159 324 311 182 184 277 298 282 251 262 277 261 241 250 269 288 303 307 300 285 261 243 238 241 241 229 218 164 177 218 244 238 227 274 23 87 173 232 214 248 331 343 348 350 352 354 354 348 329 290 245 223 216 215 219 223 220 214 211 214 237 296 302 299 299 310 324 330 334 338 341 341 343 346 346 342 340 343
297 295 293 308 236 178 205 259 163 172 215 239 194 171 194 237 228 218 248 279 273 273 288 298 297 289 291 300 294 242 220 221 239 230 211 122 88 221 231 234 231 228 284 292 284 291 258 241 344 346 345 345 346 348 352 354 348 327 272 237 234 235 233 230 229 224 217 216 224 261 287 289 290 305 331 332 321 326 336 341 342 345 350 351 345 344 345
301 313 54 54 309 221 195 161 34 233 213 204 200 202 217 243 259 269 283 289 288 292 303 310 306 293 291 303 295 219 214 209 219 230 191 98 115 249 247 274 358 343 332 272 273 266 236 289 338 339 339 339 341 343 347 351 347 324 266 241 241 243 242 239 236 232 228 227 237 259 271 275 283 307 328 322 316 327 339 344 346 350 355 353 346 344 346
265 261 116 89 297 257 211 208 239 239 187 149 231 282 288 287 289 295 301 300 299 306 312 314 308 297 289 288 269 240 224 187 185 247 189 118 214 268 358 42 4 266 234 255 272 271 268 313 326 330 332 334 336 337 339 342 342 328 284 257 250 247 243 239 236 235 234 232 236 252 261 265 275 307 327 322 324 333 342 347 350 354 358 356 351 352 358
228 225 204 182 211 206 196 237 259 232 170 283 307 309 306 296 293 300 309 304 304 312 316 312 310 311 298 269 253 253 234 131 245 268 228 129 20 349 11 6 284 235 204 218 249 274 294 309 319 324 325 325 328 330 329 330 332 329 307 278 260 252 250 248 241 235 233 232 235 244 252 255 258 304 318 311 324 340 348 350 355 4 11 11 10 14 20
235 228 219 226 241 237 242 271 291 272 228 273 291 297 297 294 292 299 314 315 319 326 322 308 297 296 293 290 310 339 324 4 5 315 14 39 27 359 330 311 296 278 210 190 265 295 304 310 314 317 317 317 319 321 321 321 322 321 313 299 277 260 257 255 244 231 228 228 227 233 244 250 198 105 41 325 332 345 349 353 4 20 28 26 26 29 29
240 240 232 229 251 264 260 271 299 306 287 295 302 304 303 305 316 342 356 339 336 338 329 308 281 262 308 357 36 15 302 282 69 46 27 35 31 338 307 304 298 289 292 300 302 304 308 311 311 309 308 310 312 313 313 315 317 315 312 306 290 269 261 254 237 223 220 217 215 228 240 227 134 118 62 5 350 348 351 360 16 32 36 33 33 35 31
237 245 241 231 235 249 256 265 294 294 288 295 307 313 312 315 337 355 349 336 339 342 327 291 276 47 27 31 36 330 309 355 54 40 10 3 12 319 299 292 290 295 301 304 306 307 309 309 308 305 304 305 307 307 306 307 311 311 309 305 295 276 259 238 212 202 205 205 207 221 220 164 134 119 76 43 9 356 359 10 24 37 41 41 41 40 35
220 240 268 262 256 260 264 265 270 280 287 296 309 319 322 331 343 345 332 327 333 338 328 123 87 64 47 26 280 326 355 27 37 14 327 283 248 261 281 287 296 305 309 310 311 311 310 309 307 306 305 304 304 304 300 298 301 304 301 295 285 258 221 197 183 183 193 200 200 192 170 154 145 119 88 63 28 7 8 18 34 47 53 52 49 47 45